AV662 Weather Reports


time (UTC)temp
C
wind
direction
speed
KPH
gust
KPH
rain 1hr
cm
rain 24hr
cm
rain mn
cm
humidity
%
barometer
mb
20260506101709 7 65 1.6 6.4 0.05 1.70 0.43 96 1007.8
20260506100708 7 34 1.6 6.4 0.08 1.70 0.43 96 1007.8
20260506095706 7 60 0.0 3.2 0.08 1.63 0.43 96 1007.8
20260506094707 7 215 0.0 8.0 0.08 1.63 0.41 96 1008.2
20260506093704 7 265 3.2 11.3 0.05 1.63 0.38 97 1008.5
20260506092704 7 292 6.4 14.5 0.08 1.63 0.38 97 1008.5
20260506091703 7 320 3.2 12.9 0.10 1.63 0.38 97 1007.8
20260506090704 8 302 9.7 11.3 0.10 1.63 0.36 97 1007.8
20260506090147 8 234 3.2 4.8 0.13 1.50 0.36 97 1007.8
20260506084705 8 37 0.0 3.2 0.15 1.50 0.33 97 1007.5
20260506083704 8 48 1.6 3.2 0.15 1.50 0.33 97 1007.8
20260506083638 8 164 0.0 3.2 0.13 1.50 0.30 97 1008.2
20260506081707 7 224 3.2 3.2 0.13 1.50 0.28 97 1008.2
20260506080704 7 256 0.0 3.2 0.10 1.50 0.25 97 1008.2
20260506072704 7 315 0.0 4.8 0.03 1.42 0.15 96 1007.8
20260506072141 7 281 3.2 3.2 0.03 1.42 0.15 96 1007.8
20260506070705 8 235 0.0 3.2 0.03 1.42 0.15 96 1007.8
20260506070141 7 174 0.0 3.2 0.03 1.40 0.15 96 1007.8
20260506062139 7 259 0.0 3.2 0.05 1.42 0.13 95 1007.8
20260506060704 7 47 3.2 6.4 0.08 1.42 0.13 94 1007.8
20260506050703 7 72 3.2 8.0 0.05 1.32 0.05 96 1008.5
20260506044704 8 39 3.2 8.0 0.08 1.27 0.05 98 1008.9
20260506043703 7 49 4.8 9.7 0.08 1.27 0.03 98 1008.9
20260506042703 8 52 6.4 6.4 0.08 1.27 0.03 98 1008.9
20260506042621 8 75 3.2 3.2 0.13 1.27 0.03 99 1008.9
20260506040703 8 232 3.2 4.8 0.13 1.27 0.00 98 1009.2
20260506035703 8 268 0.0 3.2 0.15 1.12 1.27 99 1009.2
20260506035146 8 164 1.6 3.2 0.18 1.12 1.27 99 1009.2
20260506033710 8 343 0.0 4.8 0.20 1.12 1.22 99 1009.2
20260506032711 9 295 1.6 4.8 0.25 1.12 1.22 99 1009.2
20260506031705 9 267 3.2 6.4 0.23 1.12 1.17 99 1009.2
20260506030702 9 298 4.8 8.0 0.25 1.12 1.17 98 1009.2
20260506025702 9 21 6.4 8.0 0.28 0.89 1.09 98 1009.2
20260506024704 9 6 3.2 9.7 0.25 0.89 1.09 98 1008.9
20260506023658 9 356 4.8 9.7 0.20 0.89 1.04 98 1008.9
20260506022658 9 357 4.8 9.7 0.15 0.89 0.99 98 1008.9
20260506021656 9 259 0.0 8.0 0.15 0.89 0.94 98 1008.9
20260506020651 9 356 4.8 6.4 0.10 0.89 0.89 98 1008.9
20260506015650 9 300 3.2 6.4 0.05 0.79 0.84 98 1008.9
20260506014650 9 304 0.0 6.4 0.05 0.79 0.84 98 1008.9
20260506013647 9 283 0.0 4.8 0.08 0.79 0.84 98 1008.9
20260506012648 9 0 0.0 4.8 0.08 0.79 0.84 98 1008.5
20260506011645 9 288 3.2 4.8 0.05 0.79 0.79 98 1008.5
20260506010643 9 71 0.0 6.4 0.05 0.79 0.79 98 1008.5
20260506005641 9 299 3.2 8.0 0.05 0.76 0.79 98 1008.2
20260506005117 9 332 1.6 8.0 0.05 0.76 0.76 98 1008.2
20260506003633 9 32 3.2 8.0 0.05 0.76 0.76 97 1008.2
20260506003118 9 29 6.4 11.3 0.05 0.76 0.76 97 1008.2
20260506001631 9 347 4.8 12.9 0.13 0.76 0.76 97 1008.2
20260506001107 9 88 4.8 9.7 0.28 0.76 0.76 97 1007.8
20260505235635 9 26 8.0 9.7 0.30 0.43 0.76 97 1007.8
20260505234635 9 80 3.2 11.3 0.30 0.43 0.71 97 1008.9
20260505234541 9 51 3.2 6.4 0.33 0.43 0.71 97 1008.2
20260505232627 9 347 0.0 3.2 0.41 0.43 0.66 97 1008.5
20260505232554 9 98 1.6 6.4 0.38 0.43 0.61 97 1009.2
20260505230624 9 13 0.0 4.8 0.28 0.43 0.48 97 1008.5
20260505225623 9 212 0.0 4.8 0.30 0.18 0.43 97 1008.9
20260505224624 9 84 3.2 4.8 0.28 0.18 0.43 97 1008.9
20260505223621 9 304 3.2 3.2 0.28 0.18 0.38 96 1008.5
20260505223104 9 349 0.0 4.8 0.25 0.18 0.28 96 1008.5
20260505221616 9 333 3.2 6.4 0.23 0.18 0.23 96 1008.5
20260505220616 9 330 3.2 4.8 0.15 0.18 0.18 96 1008.2
20260505215614 9 295 3.2 8.0 0.00 0.00 0.15 96 1008.5
20260505214613 9 308 4.8 8.0 0.00 0.00 0.10 96 1008.5
20260505213610 9 15 0.0 8.0 0.00 0.00 0.10 96 1008.5
20260505213056 9 328 1.6 9.7 0.00 0.00 0.05 96 1008.2
20260505211610 10 310 11.3 0.0 0.00 0.00 0.00 96 1008.2
20260505211203 -17 0.0 0.0 0.00 0.00 0.00
20260505210208 -17 0.0 0.0 0.00 0.00 0.00
20260505205641 -17 0.0 0.0 0.00 0.00 0.00
20260505204207 -17 0.0 0.0 0.00 0.00 0.00
20260505203207 -17 0.0 0.0 0.00 0.00 0.00
20260505202641 -17 0.0 0.0 0.00 0.00 0.00
20260505201207 -17 0.0 0.0 0.00 0.00 0.00
20260505200203 -17 0.0 0.0 0.00 0.00 0.00
20260505195204 -17 0.0 0.0 0.00 0.00 0.00
20260505194641 -17 0.0 0.0 0.00 0.00 0.00
20260505193208 -17 0.0 0.0 0.00 0.00 0.00
20260505192220 13 238 4.8 11.3 0.00 0.00 0.00 85 1007.8
20260505192207 -17 0.0 0.0 0.00 0.00 0.00
20260505192013 13 262 9.7 0.0 0.00 0.00 0.00 87 1007.9
20260505192009 13 262 4.8 14.5 0.00 0.00 0.00 87 1007.8
20260505185212 13 281 8.0 19.3 0.00 0.00 0.00 85 1007.9
20260505184706 14 279 8.0 19.3 0.00 0.00 0.00 80 1008.0
20260505183647 14 302 8.0 14.5 0.00 0.00 0.00 82 1008.1
20260505182210 14 261 6.4 19.3 0.00 0.00 0.00 82 1007.9
20260505181210 14 298 6.4 14.5 0.00 0.00 0.00 82 1007.7
20260505180649 14 289 9.7 17.7 0.00 0.00 0.00 81 1007.8
20260505175210 15 273 8.0 20.9 0.00 0.00 0.00 80 1007.5
20260505174211 15 278 9.7 25.7 0.00 0.00 0.00 80 1007.6
20260505173650 15 267 14.5 24.1 0.00 0.00 0.00 79 1007.5
20260505172210 15 282 3.2 22.5 0.00 0.00 0.00 78 1007.3
20260505171657 15 285 14.5 30.6 0.00 0.00 0.00 79 1007.3
20260505170209 15 257 12.9 19.3 0.00 0.00 0.00 77 1007.4
20260505165210 15 271 11.3 24.1 0.00 0.00 0.00 76 1007.2
20260505164210 15 279 12.9 22.5 0.00 0.00 0.00 76 1007.2
20260505163210 16 277 9.7 27.4 0.00 0.00 0.00 74 1007.0
20260505162211 16 277 11.3 29.0 0.00 0.00 0.00 73 1007.2
20260505161210 16 293 11.3 27.4 0.00 0.00 0.00 70 1006.9
20260505160210 17 283 19.3 25.7 0.00 0.00 0.00 66 1006.9
20260505153137 19 278 11.3 22.5 0.00 0.00 0.00 59 1005.9
20260505151210 18 256 14.5 24.1 0.00 0.00 0.00 61 1005.7
20260505150223 18 256 17.7 25.7 0.00 0.00 0.00 62 1006.0
20260505140210 18 249 14.5 32.2 0.00 0.00 0.00 62 1005.4
20260505130211 17 236 14.5 27.4 0.00 0.00 0.00 66 1005.4
20260505123210 17 234 9.7 27.4 0.00 0.00 0.00 64 1005.3
20260505122650 17 158 3.2 25.7 0.00 0.00 0.00 64 1004.6
20260505121650 17 220 8.0 27.4 0.00 0.00 0.00 63 1004.5
20260505120646 18 249 16.1 29.0 0.00 0.00 0.00 61 1004.0
20260505115210 18 237 9.7 22.5 0.00 0.00 0.00 60 1004.2
20260505114650 18 266 11.3 25.7 0.00 0.00 0.00 60 1004.2
20260505113211 18 255 4.8 37.0 0.00 0.00 0.00 59 1004.1
20260505112210 18 283 4.8 24.1 0.00 0.00 0.00 59 1004.0
20260505111210 18 231 8.0 19.3 0.00 0.00 0.00 59 1003.9
20260505110652 18 275 8.0 27.4 0.00 0.00 0.00 59 1003.8